TimeCDT,TemperatureF,Dew PointF,Humidity,Sea Level PressureIn,VisibilityMPH,Wind Direction,Wind SpeedMPH,Gust SpeedMPH,PrecipitationIn,Events,Conditions,WindDirDegrees,DateUTC
12:14 AM,46.4,42.8,87,30.14,10.0,North,10.4,-,N/A,,Clear,10,2013-10-04 05:14:00
12:34 AM,46.4,42.8,87,30.14,10.0,NNE,9.2,-,N/A,,Clear,20,2013-10-04 05:34:00
12:55 AM,46.4,42.8,87,30.13,10.0,North,10.4,-,N/A,,Clear,10,2013-10-04 05:55:00
1:14 AM,46.4,42.8,87,30.14,10.0,NNE,11.5,-,N/A,,Clear,20,2013-10-04 06:14:00
1:35 AM,46.4,42.8,87,30.15,10.0,NNE,9.2,-,N/A,,Clear,20,2013-10-04 06:35:00
1:54 AM,46.4,42.8,87,30.15,10.0,North,10.4,-,N/A,,Clear,10,2013-10-04 06:54:00
2:14 AM,44.6,41.0,87,30.15,10.0,North,10.4,-,N/A,,Clear,10,2013-10-04 07:14:00
2:35 AM,44.6,41.0,87,30.14,10.0,North,11.5,-,N/A,,Clear,10,2013-10-04 07:35:00
2:54 AM,44.6,41.0,87,30.14,10.0,NNE,11.5,-,N/A,,Clear,20,2013-10-04 07:54:00
3:15 AM,44.6,39.2,81,30.15,10.0,North,12.7,-,N/A,,Clear,10,2013-10-04 08:15:00
3:34 AM,44.6,39.2,81,30.15,10.0,North,11.5,17.3,N/A,,Clear,10,2013-10-04 08:34:00
3:55 AM,44.6,39.2,81,30.15,10.0,North,11.5,18.4,N/A,,Clear,10,2013-10-04 08:55:00
4:14 AM,42.8,39.2,87,30.16,10.0,NNE,12.7,18.4,N/A,,Clear,20,2013-10-04 09:14:00
4:34 AM,42.8,39.2,87,30.16,10.0,NNE,13.8,21.9,N/A,,Clear,20,2013-10-04 09:34:00
4:54 AM,42.8,37.4,81,30.15,10.0,NNE,16.1,19.6,N/A,,Scattered Clouds,20,2013-10-04 09:54:00
5:14 AM,42.8,37.4,81,30.17,10.0,NNE,11.5,17.3,N/A,,Mostly Cloudy,20,2013-10-04 10:14:00
5:35 AM,42.8,37.4,81,30.19,10.0,NNE,9.2,-,N/A,,Mostly Cloudy,20,2013-10-04 10:35:00
5:54 AM,42.8,37.4,81,30.18,10.0,NNE,9.2,-,N/A,,Mostly Cloudy,20,2013-10-04 10:54:00
6:15 AM,42.8,37.4,81,30.19,10.0,North,10.4,-,N/A,,Mostly Cloudy,10,2013-10-04 11:15:00
6:35 AM,42.8,37.4,81,30.20,10.0,NNE,9.2,-,N/A,,Overcast,20,2013-10-04 11:35:00
6:54 AM,42.8,37.4,81,30.21,10.0,North,12.7,-,N/A,,Overcast,10,2013-10-04 11:54:00
7:14 AM,42.8,37.4,81,30.21,10.0,North,12.7,18.4,N/A,,Overcast,10,2013-10-04 12:14:00
7:34 AM,42.8,37.4,81,30.21,10.0,North,12.7,-,N/A,,Mostly Cloudy,10,2013-10-04 12:34:00
7:54 AM,42.8,37.4,81,30.21,10.0,North,11.5,-,N/A,,Overcast,10,2013-10-04 12:54:00
8:14 AM,42.8,37.4,81,30.22,10.0,NNE,12.7,18.4,N/A,,Overcast,20,2013-10-04 13:14:00
8:35 AM,42.8,37.4,81,30.23,10.0,North,12.7,18.4,N/A,,Overcast,10,2013-10-04 13:35:00
8:54 AM,42.8,37.4,81,30.24,10.0,North,10.4,17.3,N/A,,Overcast,10,2013-10-04 13:54:00
9:15 AM,42.8,37.4,81,30.23,10.0,NNE,12.7,20.7,N/A,,Overcast,20,2013-10-04 14:15:00
9:35 AM,42.8,37.4,81,30.23,10.0,NNE,16.1,19.6,N/A,,Mostly Cloudy,20,2013-10-04 14:35:00
9:55 AM,42.8,37.4,81,30.23,10.0,NNE,15.0,18.4,N/A,,Scattered Clouds,20,2013-10-04 14:55:00
10:15 AM,42.8,37.4,81,30.24,10.0,North,12.7,-,N/A,,Mostly Cloudy,10,2013-10-04 15:15:00
10:34 AM,42.8,37.4,81,30.24,10.0,NNE,15.0,19.6,N/A,,Overcast,20,2013-10-04 15:34:00
10:55 AM,42.8,37.4,81,30.23,10.0,NNE,17.3,23.0,N/A,,Overcast,20,2013-10-04 15:55:00
11:14 AM,44.6,39.2,81,30.22,10.0,NNE,11.5,18.4,N/A,,Overcast,30,2013-10-04 16:14:00
11:34 AM,44.6,37.4,76,30.21,10.0,NNE,16.1,23.0,N/A,,Overcast,30,2013-10-04 16:34:00
11:55 AM,44.6,39.2,81,30.20,10.0,NNE,13.8,-,N/A,,Mostly Cloudy,30,2013-10-04 16:55:00
12:14 PM,44.6,39.2,81,30.20,10.0,NNE,16.1,23.0,N/A,,Scattered Clouds,30,2013-10-04 17:14:00
12:35 PM,46.4,41.0,81,30.21,10.0,NNE,11.5,19.6,N/A,Rain,Light Rain,30,2013-10-04 17:35:00
12:55 PM,46.4,41.0,81,30.20,10.0,NNE,13.8,21.9,N/A,,Overcast,30,2013-10-04 17:55:00
1:14 PM,46.4,41.0,81,30.20,10.0,NNE,15.0,18.4,N/A,,Mostly Cloudy,30,2013-10-04 18:14:00
1:35 PM,46.4,41.0,81,30.20,10.0,NE,12.7,21.9,N/A,,Scattered Clouds,40,2013-10-04 18:35:00
1:54 PM,46.4,42.8,87,30.20,10.0,NNE,13.8,17.3,N/A,,Drizzle,30,2013-10-04 18:54:00
2:15 PM,46.4,41.0,81,30.19,10.0,NNE,15.0,20.7,N/A,,Drizzle,20,2013-10-04 19:15:00
2:34 PM,44.6,41.0,87,30.18,10.0,NNE,16.1,21.9,N/A,,Light Drizzle,20,2013-10-04 19:34:00
2:54 PM,44.6,41.0,87,30.18,10.0,NNE,16.1,23.0,N/A,,Light Drizzle,20,2013-10-04 19:54:00
3:15 PM,44.6,41.0,87,30.18,10.0,NNE,13.8,20.7,N/A,,Drizzle,20,2013-10-04 20:15:00
3:34 PM,44.6,39.2,81,30.18,10.0,NNE,18.4,25.3,N/A,,Light Drizzle,20,2013-10-04 20:34:00
3:55 PM,46.4,39.2,76,30.17,10.0,NNE,20.7,27.6,N/A,,Clear,20,2013-10-04 20:55:00
4:14 PM,46.4,39.2,76,30.17,10.0,NNE,15.0,31.1,N/A,,Scattered Clouds,30,2013-10-04 21:14:00
4:34 PM,46.4,39.2,76,30.16,10.0,NNE,20.7,31.1,N/A,,Scattered Clouds,30,2013-10-04 21:34:00
4:55 PM,44.6,37.4,76,30.15,10.0,NNE,15.0,27.6,N/A,,Scattered Clouds,30,2013-10-04 21:55:00
5:14 PM,44.6,37.4,76,30.15,10.0,NNE,16.1,25.3,N/A,,Mostly Cloudy,30,2013-10-04 22:14:00
5:35 PM,44.6,37.4,76,30.15,10.0,NE,21.9,26.5,N/A,,Mostly Cloudy,40,2013-10-04 22:35:00
5:55 PM,44.6,37.4,76,30.17,10.0,NE,18.4,24.2,N/A,,Overcast,40,2013-10-04 22:55:00
6:14 PM,44.6,37.4,76,30.17,10.0,NNE,13.8,24.2,N/A,,Overcast,30,2013-10-04 23:14:00
6:35 PM,44.6,37.4,76,30.17,10.0,NE,16.1,23.0,N/A,,Overcast,40,2013-10-04 23:35:00
6:54 PM,44.6,39.2,81,30.16,10.0,NNE,13.8,20.7,N/A,Rain,Rain,30,2013-10-04 23:54:00
7:14 PM,44.6,39.2,81,30.16,10.0,NNE,11.5,19.6,N/A,,Drizzle,30,2013-10-05 00:14:00
7:35 PM,44.6,39.2,81,30.16,10.0,NNE,12.7,19.6,N/A,,Overcast,30,2013-10-05 00:35:00
7:54 PM,44.6,37.4,76,30.15,10.0,NNE,16.1,21.9,N/A,,Light Drizzle,20,2013-10-05 00:54:00
8:15 PM,44.6,37.4,76,30.14,10.0,NNE,16.1,21.9,N/A,,Overcast,30,2013-10-05 01:15:00
8:34 PM,44.6,37.4,76,30.14,10.0,NNE,15.0,23.0,N/A,,Overcast,30,2013-10-05 01:34:00
8:54 PM,44.6,39.2,81,30.15,10.0,NNE,13.8,27.6,N/A,Rain,Rain,30,2013-10-05 01:54:00
9:15 PM,42.8,39.2,87,30.15,7.0,NE,15.0,25.3,0.01,Rain,Light Rain,40,2013-10-05 02:15:00
9:34 PM,42.8,39.2,87,30.15,7.0,NNE,16.1,25.3,0.02,Rain,Light Rain,30,2013-10-05 02:34:00
9:55 PM,42.8,41.0,93,30.13,7.0,NNE,18.4,27.6,0.01,Rain,Rain,30,2013-10-05 02:55:00
10:14 PM,42.8,41.0,93,30.12,7.0,NE,18.4,24.2,0.01,Rain,Rain,40,2013-10-05 03:14:00
10:34 PM,41.0,41.0,100,30.12,7.0,NNE,18.4,25.3,0.02,Rain,Light Rain,30,2013-10-05 03:34:00
10:55 PM,41.0,41.0,100,30.12,5.0,NE,16.1,25.3,0.01,Rain,Rain,40,2013-10-05 03:55:00
11:14 PM,42.8,41.0,93,30.11,5.0,NE,16.1,23.0,0.01,,Drizzle,40,2013-10-05 04:14:00
11:35 PM,42.8,41.0,93,30.10,10.0,NE,16.1,24.2,0.01,,Light Drizzle,50,2013-10-05 04:35:00
11:55 PM,42.8,41.0,93,30.07,5.0,NE,18.4,25.3,N/A,,Drizzle,40,2013-10-05 04:55:00